Weather History for Dunkirk, NY

Change the Weather History Date:

Saturday, June 22, 2013

  Actual Average Record
Temperature  
Mean Temperature 74 °F -  
Max Temperature 88 °F 76 °F 93 °F (1957)
Min Temperature 62 °F 58 °F 42 °F (1936)
Cooling Degree Days 10    
Growing Degree Days 24 (Base 50)    
Moisture  
Dew Point 62 °F    
Average Humidity 61    
Maximum Humidity 81    
Minimum Humidity 44    
Precipitation  
Precipitation 0.00 in - - ()
Sea Level Pressure  
Sea Level Pressure 30.09 in    
Wind  
Wind Speed 12 mph (SW)    
Max Wind Speed 21 mph    
Max Gust Speed 28 mph    
Visibility 10 miles    
Events      
Averages and records for this station are not official NWS values.
T = Trace of Precipitation, MM = Missing Value Source: NWS Daily Summary

Daily Weather History Graph

Daily Weather History Graph

Search for Another Location

Airport:

Trip Planner

Search our weather history database for the weather conditions in past years. The results will help you decide how hot, cold, wet, or windy it might be!

Date:

Astronomy

Jun. 22, 2013 Rise Set
Actual Time 5:40 AM EDT 8:58 PM EDT
Civil Twilight 5:05 AM EDT 9:33 PM EDT
Nautical Twilight 4:20 AM EDT 10:18 PM EDT
Astronomical Twilight 3:24 AM EDT 11:13 PM EDT
Moon 8:09 PM EDT (6/22) 4:52 AM EDT (6/22)
Length of Visible Light 16h 27m
Length of Day
15h 18m
Waxing Gibbous, 99% of the Moon is Illuminated
Jun 22
Waxing Gibbous
Jun 23
Full
Jun 30
Last Quarter
Jul 8
New
Jul 15
First Quarter

Hourly Weather History & Observations

Time (EDT) Temp. Heat Index Dew Point Humidity Pressure Visibility Wind Dir Wind Speed Gust Speed Precip Events Conditions
12:53 AM 62.1 °F - 55.9 °F 80% 30.17 in 10.0 mi SSW 5.8 mph - N/A   Clear
1:53 AM 63.0 °F - 55.9 °F 78% 30.16 in 10.0 mi SSW 9.2 mph - N/A   Clear
2:53 AM 69.1 °F - 55.9 °F 63% 30.13 in 10.0 mi South 12.7 mph - N/A   Clear
3:53 AM 69.1 °F - 55.0 °F 61% 30.12 in 10.0 mi SSW 12.7 mph - N/A   Clear
4:53 AM 71.1 °F - 55.0 °F 57% 30.11 in 10.0 mi South 11.5 mph 20.7 mph N/A   Clear
5:53 AM 71.1 °F - 59.0 °F 66% 30.10 in 10.0 mi South 16.1 mph - N/A   Clear
6:53 AM 72.0 °F - 59.0 °F 64% 30.10 in 10.0 mi South 19.6 mph - N/A   Clear
7:53 AM 73.0 °F - 59.0 °F 61% 30.11 in 10.0 mi SSW 20.7 mph 26.5 mph N/A   Clear
8:53 AM 75.0 °F - 61.0 °F 62% 30.13 in 10.0 mi SSW 16.1 mph - N/A   Clear
9:53 AM 79.0 °F - 62.1 °F 56% 30.13 in 10.0 mi SSW 19.6 mph 27.6 mph N/A   Clear
10:53 AM 81.0 °F 82.2 °F 63.0 °F 54% 30.13 in 10.0 mi SW 13.8 mph 26.5 mph N/A   Partly Cloudy
11:53 AM 84.0 °F 85.4 °F 64.0 °F 51% 30.12 in 10.0 mi WSW 12.7 mph 20.7 mph N/A   Scattered Clouds
12:53 PM 84.0 °F 85.4 °F 64.0 °F 51% 30.12 in 10.0 mi SW 12.7 mph 21.9 mph N/A   Partly Cloudy
1:53 PM 87.1 °F 87.8 °F 63.0 °F 44% 30.10 in 10.0 mi SW 15.0 mph 21.9 mph N/A   Clear
2:53 PM 87.1 °F 88.3 °F 64.0 °F 46% 30.08 in 10.0 mi WSW 15.0 mph 21.9 mph N/A   Clear
3:53 PM 86.0 °F 87.6 °F 64.9 °F 49% 30.06 in 10.0 mi WSW 11.5 mph 18.4 mph N/A   Clear
4:53 PM 82.0 °F 84.1 °F 66.0 °F 58% 30.04 in 10.0 mi WSW 10.4 mph 17.3 mph N/A   Clear
5:53 PM 84.0 °F 87.0 °F 68.0 °F 58% 30.02 in 10.0 mi SW 6.9 mph - N/A   Clear
6:41 PM 80.6 °F 82.7 °F 66.2 °F 61% 30.03 in 10.0 mi West 16.1 mph - N/A   Clear
6:53 PM 80.1 °F 82.3 °F 66.9 °F 64% 30.02 in 10.0 mi West 6.9 mph - N/A   Clear
7:53 PM 80.1 °F 82.1 °F 66.0 °F 62% 30.03 in 10.0 mi WSW 5.8 mph - N/A   Clear
8:53 PM 77.0 °F - 66.9 °F 71% 30.04 in 10.0 mi Calm Calm - N/A   Clear
9:53 PM 73.0 °F - 66.9 °F 81% 30.05 in 8.0 mi SSW 6.9 mph - N/A   Mostly Cloudy
10:53 PM 75.9 °F - 64.9 °F 69% 30.05 in 10.0 mi SSW 11.5 mph 16.1 mph N/A   Clear
11:53 PM 78.1 °F - 64.0 °F 62% 30.05 in 10.0 mi SSW 17.3 mph 25.3 mph N/A   Clear